Regional Weather Roundup
Issued by NWS

Home | Current Version | Previous Version | Graphics & Text | Print | Product List | Glossary On
Versions: 1 2 3 4 5 6 7 8 9 10 11 12 13 14 15 16 17 18 19 20 21 22 23 24 25 26 27 28 29 30 31 32 33 34 35 36 37 38 39 40 41 42 43 44 45 46 47 48 49 50
000
ASUS44 KMEG 230810
RWRTN
TENNESSEE HOURLY STATE WEATHER ROUNDUP
NATIONAL WEATHER SERVICE MEMPHIS TN
300 AM CDT WED JUL 23 2014

TNZ002-004-019-021-049-052-054-088>092-230900-
WEST TENNESSEE

CITY           SKY/WX    TMP DP  RH WIND       PRES   REMARKS
MEMPHIS INTL   PTCLDY    77  70  79 N5        30.05F
NWS MEMPHIS      N/A     74 N/A N/A MISG        N/A
JACKSON        CLEAR     73  71  93 S5        30.05F FOG
DYERSBURG      CLEAR     72  63  73 CALM      30.05F
UNION CITY     CLEAR     72  72 100 CALM      30.04S
PARIS          CLEAR     70  68  93 CALM      30.06F
LEXINGTON        N/A     70  70 100 CALM      30.05F VSB 3/4
SAVANNAH       CLEAR     71  71 100 CALM      30.06F
$$

TNZ008-025-027-028-033-062-065-066-230900-
NORTH MIDDLE TENNESSEE

CITY           SKY/WX    TMP DP  RH WIND       PRES   REMARKS
NASHVILLE      PTCLDY    73  71  93 CALM      30.06F
DICKSON        PTCLDY    73  72  94 W5        30.07F
PORTLAND       CLEAR     72  70  94 CALM      30.06S
CLARKSVILLE    CLEAR     75  72  90 CALM      30.05F
LEBANON        PTCLDY    74  71  90 S3        30.05F
SMYRNA         PTCLDY    74  72  93 CALM      30.07S
MURFREESBORO   PTCLDY    75  70  85 CALM      30.06
COOKEVILLE     PTCLDY    72  70  94 CALM      30.09S
GALLATIN       PTCLDY    73  73 100 CALM      30.07F
CROSSVILLE     CLEAR     70  67  90 CALM      30.13F
$$

TNZ061-075-076-078-094-096-097-230900-
SOUTH MIDDLE TENNESSEE

CITY           SKY/WX    TMP DP  RH WIND       PRES   REMARKS
LAWRENCEBURG   PTCLDY    71  71 100 CALM      30.07
LEWISBURG      CLOUDY    74  72  93 CALM      30.08S
FAYETTEVILLE   CLEAR     70  68  94 CALM      30.09S
TULLAHOMA      CLEAR     72  70  94 CALM      30.10F
WINCHESTER     CLEAR     70  70 100 CALM      30.09F
MCMINNVILLE    CLEAR     72  72 100 CALM      30.09F
COLUMBIA       CLOUDY    73  73 100 CALM      30.06F
SHELBYVILLE    MOCLDY    73  72  94 CALM      30.09S
$$

TNZ017-018-042-046-047-230900-
NORTHEAST TENNESSEE

CITY           SKY/WX    TMP DP  RH WIND       PRES   REMARKS
TRI CITIES     CLEAR     68  65  90 CALM      30.11F
ELIZABETHTON   SUNNY     64  63  94 CALM      30.12F
$$

TNZ012-013-036-069-073-074-230900-
CENTRAL EAST TENNESSEE

CITY           SKY/WX    TMP DP  RH WIND       PRES   REMARKS
KNOXVILLE      PTCLDY    74  70  87 W5        30.07F
OAK RIDGE      PTCLDY    75  72  90 CALM      30.09F
GATLINBURG     SUNNY     72  68  88 CALM      30.08F
MORRISTOWN     MOSUNNY   72  72 100 CALM      30.11S
$$

TNZ083-085-099-230900-
SOUTHEAST TENNESSEE

CITY           SKY/WX    TMP DP  RH WIND       PRES   REMARKS
CHATTANOOGA    CLEAR     73  69  87 CALM      30.08F
$$

SKY/WX REPORTED AS FAIR MEANS FEW OR NO CLOUDS BELOW
12 THOUSAND FEET.




USA.gov is the U.S. government's official web portal to all federal, state and local government web resources and services.